Location: Barcelona
(41.3830°N, 2.1830°E)
Time: 13:12:19
(UTC+02:00)

ISS - Pass Details

Date: 30 May 2020
Orbit: 417 x 419 km, 51.6° (Epoch: 31 May)

Event Time Altitude Azimuth Distance (km) Brightness Sun altitude
Rises 23:57:55 0° 302° (WNW) 2,366 1.0 -21.8°
Reaches altitude 10° 00:00:03 10° 298° (WNW) 1,500 -0.2 -22.0°
Enters shadow 00:02:24 38° 273° (W) 658 -2.6 -22.2°
